• In Germany
  • List of Countries
  • For 7 days
  • Water Temperature
  • Satellite Maps
  • Weather Map
  • Weather Widgets
  • user-avatar
    Login

    Hourly Weather Canberra

    Today, 29 May, Monday

    Time Temperature Precipitation Wind Pressure Humidity
    00:00 +5°C° 0 mm 4 mps 706 mmHg 83%
    01:00 +5°C° 0 mm 4 mps 706 mmHg 83%
    02:00 +4°C° 0 mm 4 mps 706 mmHg 81%
    03:00 +4°C° 0 mm 4 mps 707 mmHg 80%
    04:00 +4°C° 0 mm 4 mps 707 mmHg 78%
    05:00 +3°C° 0 mm 3 mps 707 mmHg 79%
    06:00 +3°C° 0 mm 3 mps 708 mmHg 81%
    07:00 +2°C° 0 mm 3 mps 708 mmHg 82%
    08:00 +3°C° 0 mm 3 mps 709 mmHg 74%
    09:00 +5°C° 0 mm 3 mps 710 mmHg 67%
    10:00 +7°C° 0 mm 3 mps 710 mmHg 60%
    11:00 +8°C° 0 mm 3 mps 711 mmHg 56%
    12:00 +9°C° 0 mm 3 mps 711 mmHg 52%
    13:00 +10°C° 0 mm 3 mps 711 mmHg 47%
    14:00 +10°C° 0 mm 3 mps 711 mmHg 50%
    15:00 +9°C° 0 mm 3 mps 711 mmHg 52%
    16:00 +9°C° 0 mm 3 mps 711 mmHg 55%
    17:00 +7°C° 0 mm 2 mps 711 mmHg 64%
    18:00 +5°C° 0 mm 2 mps 712 mmHg 74%
    19:00 +3°C° 0 mm 2 mps 712 mmHg 84%
    20:00 +2°C° 0 mm 2 mps 712 mmHg 86%
    21:00 +2°C° 0 mm 1 mps 712 mmHg 88%
    22:00 +2°C° 0 mm 1 mps 713 mmHg 90%
    23:00 +2°C° 0 mm 1 mps 713 mmHg 90%

    Tomorrow, 30 May, Tuesday

    Time Temperature Precipitation Wind Pressure Humidity
    00:00 +2°C° 0 mm 1 mps 713 mmHg 90%
    01:00 +1°C° 0 mm 1 mps 713 mmHg 90%
    02:00 +2°C° 0 mm 1 mps 712 mmHg 90%
    03:00 +2°C° 0 mm 1 mps 712 mmHg 91%
    04:00 +1°C° 0 mm 2 mps 712 mmHg 91%
    05:00 +1°C° 0 mm 2 mps 712 mmHg 92%
    06:00 +1°C° 0 mm 2 mps 712 mmHg 93%
    07:00 +1°C° 0 mm 2 mps 712 mmHg 94%
    08:00 +3°C° 0 mm 2 mps 713 mmHg 85%
    09:00 +6°C° 0 mm 2 mps 713 mmHg 75%
    10:00 +8°C° 0 mm 2 mps 713 mmHg 65%
    11:00 +10°C° 0 mm 3 mps 713 mmHg 62%
    12:00 +11°C° 0 mm 3 mps 713 mmHg 59%
    13:00 +12°C° 0 mm 4 mps 712 mmHg 56%
    14:00 +11°C° 0 mm 3 mps 712 mmHg 61%
    15:00 +11°C° 0 mm 3 mps 712 mmHg 65%
    16:00 +10°C° 0 mm 3 mps 712 mmHg 70%
    17:00 +8°C° 0 mm 2 mps 712 mmHg 77%
    18:00 +7°C° 0 mm 2 mps 712 mmHg 85%
    19:00 +6°C° 0 mm 1 mps 712 mmHg 92%
    20:00 +6°C° 0.2 mm 1 mps 713 mmHg 93%
    21:00 +6°C° 0.2 mm 1 mps 713 mmHg 94%
    22:00 +6°C° 0.2 mm 1 mps 714 mmHg 95%
    23:00 +6°C° 0.1 mm 1 mps 714 mmHg 95%

    Day after tomorrow, 31 May, Wednesday

    Time Temperature Precipitation Wind Pressure Humidity
    00:00 +5°C° 0.1 mm 1 mps 714 mmHg 95%
    01:00 +5°C° 0.1 mm 1 mps 714 mmHg 95%
    02:00 +3°C° 0 mm 2 mps 714 mmHg 94%
    03:00 +2°C° 0 mm 2 mps 714 mmHg 93%
    04:00 +2°C° 0 mm 2 mps 714 mmHg 91%
    05:00 +1°C° 0 mm 2 mps 714 mmHg 91%
    06:00 +1°C° 0 mm 2 mps 715 mmHg 91%
    07:00 -1°C° 0 mm 2 mps 715 mmHg 90%
    08:00 +2°C° 0 mm 2 mps 716 mmHg 82%
    09:00 +4°C° 0 mm 2 mps 717 mmHg 74%
    10:00 +5°C° 0 mm 3 mps 717 mmHg 66%
    11:00 +8°C° 0 mm 3 mps 717 mmHg 58%
    12:00 +9°C° 0 mm 3 mps 717 mmHg 51%
    13:00 +10°C° 0 mm 3 mps 717 mmHg 43%
    14:00 +10°C° 0 mm 2 mps 717 mmHg 46%
    15:00 +9°C° 0 mm 2 mps 717 mmHg 48%
    16:00 +9°C° 0 mm 2 mps 717 mmHg 51%
    17:00 +7°C° 0 mm 2 mps 718 mmHg 59%
    18:00 +4°C° 0 mm 2 mps 718 mmHg 68%
    19:00 +2°C° 0 mm 2 mps 718 mmHg 77%
    20:00 +2°C° 0 mm 2 mps 719 mmHg 79%
    21:00 +1°C° 0 mm 2 mps 719 mmHg 81%
    22:00 +1°C° 0 mm 2 mps 719 mmHg 84%
    23:00 +1°C° 0 mm 2 mps 719 mmHg 85%

    1 June, Thursday

    Time Temperature Precipitation Wind Pressure Humidity
    00:00 +1°C° 0 mm 2 mps 719 mmHg 86%
    01:00 +1°C° 0 mm 2 mps 719 mmHg 87%
    02:00 +1°C° 0 mm 2 mps 719 mmHg 88%
    03:00 +1°C° 0 mm 1 mps 719 mmHg 89%
    04:00 +1°C° 0 mm 1 mps 719 mmHg 90%
    05:00 +1°C° 0 mm 1 mps 720 mmHg 90%
    06:00 +1°C° 0 mm 1 mps 720 mmHg 90%
    07:00 +1°C° 0 mm 1 mps 720 mmHg 90%
    08:00 +4°C° 0 mm 1 mps 721 mmHg 78%
    09:00 +7°C° 0 mm 1 mps 721 mmHg 67%
    10:00 +10°C° 0 mm 1 mps 722 mmHg 55%
    11:00 +11°C° 0 mm 1 mps 721 mmHg 49%
    12:00 +12°C° 0 mm 2 mps 721 mmHg 44%
    13:00 +14°C° 0 mm 2 mps 721 mmHg 39%
    14:00 +13°C° 0 mm 2 mps 720 mmHg 44%
    15:00 +12°C° 0 mm 1 mps 720 mmHg 49%
    16:00 +11°C° 0 mm 1 mps 720 mmHg 54%
    17:00 +9°C° 0 mm 1 mps 720 mmHg 63%
    18:00 +7°C° 0 mm 1 mps 720 mmHg 72%
    19:00 +3°C° 0 mm 2 mps 720 mmHg 81%
    20:00 +3°C° 0 mm 2 mps 721 mmHg 83%
    21:00 +4°C° 0 mm 1 mps 721 mmHg 84%
    22:00 +3°C° 0 mm 1 mps 721 mmHg 86%
    23:00 +2°C° 0 mm 2 mps 721 mmHg 87%

    2 June, Friday

    Time Temperature Precipitation Wind Pressure Humidity
    00:00 +2°C° 0 mm 2 mps 721 mmHg 88%
    01:00 +2°C° 0 mm 2 mps 720 mmHg 90%
    02:00 +2°C° 0 mm 2 mps 720 mmHg 90%
    03:00 +3°C° 0 mm 1 mps 720 mmHg 91%
    04:00 +3°C° 0 mm 1 mps 720 mmHg 91%
    05:00 +3°C° 0 mm 1 mps 720 mmHg 91%
    06:00 +3°C° 0 mm 1 mps 721 mmHg 90%
    07:00 +3°C° 0 mm 1 mps 721 mmHg 90%
    08:00 +6°C° 0 mm 1 mps 721 mmHg 78%
    09:00 +8°C° 0 mm 1 mps 722 mmHg 66%
    10:00 +11°C° 0 mm 1 mps 722 mmHg 53%
    11:00 +13°C° 0 mm 1 mps 722 mmHg 48%
    12:00 +14°C° 0 mm 1 mps 721 mmHg 43%
    13:00 +16°C° 0 mm 1 mps 721 mmHg 38%
    14:00 +14°C° 0 mm 1 mps 721 mmHg 45%
    15:00 +13°C° 0 mm 1 mps 720 mmHg 52%
    16:00 +12°C° 0 mm 1 mps 720 mmHg 59%
    17:00 +10°C° 0 mm 1 mps 720 mmHg 69%
    18:00 +7°C° 0 mm 1 mps 720 mmHg 78%
    19:00 +4°C° 0 mm 1 mps 720 mmHg 88%
    20:00 +4°C° 0 mm 1 mps 720 mmHg 88%
    21:00 +4°C° 0 mm 1 mps 720 mmHg 88%
    22:00 +3°C° 0 mm 1 mps 720 mmHg 89%
    23:00 +3°C° 0 mm 1 mps 720 mmHg 88%

    3 June, Saturday

    Time Temperature Precipitation Wind Pressure Humidity
    00:00 +3°C° 0 mm 1 mps 720 mmHg 88%
    01:00 +3°C° 0 mm 1 mps 720 mmHg 88%
    02:00 +3°C° 0 mm 1 mps 720 mmHg 87%
    03:00 +3°C° 0 mm 1 mps 720 mmHg 86%
    04:00 +3°C° 0 mm 1 mps 719 mmHg 85%
    05:00 +2°C° 0 mm 1 mps 720 mmHg 84%
    06:00 +2°C° 0 mm 1 mps 720 mmHg 83%
    07:00 +2°C° 0 mm 1 mps 720 mmHg 83%
    08:00 +5°C° 0 mm 1 mps 720 mmHg 71%
    09:00 +8°C° 0 mm 1 mps 720 mmHg 59%
    10:00 +10°C° 0 mm 0 mps 721 mmHg 48%
    11:00 +12°C° 0 mm 0 mps 720 mmHg 44%
    12:00 +13°C° 0 mm 0 mps 720 mmHg 40%
    13:00 +15°C° 0 mm 0 mps 719 mmHg 35%
    14:00 +14°C° 0 mm 0 mps 719 mmHg 42%
    15:00 +14°C° 0 mm 1 mps 719 mmHg 49%
    16:00 +12°C° 0 mm 1 mps 718 mmHg 56%
    17:00 +9°C° 0 mm 1 mps 718 mmHg 68%
    18:00 +6°C° 0 mm 1 mps 718 mmHg 80%
    19:00 +1°C° 0 mm 0 mps 717 mmHg 92%
    20:00 +1°C° 0 mm 0 mps 717 mmHg 93%
    21:00 0°C° 0 mm 0 mps 717 mmHg 94%
    22:00 0°C° 0 mm 0 mps 717 mmHg 95%
    23:00 0°C° 0 mm 0 mps 717 mmHg 95%
    Show more